CW9546 Weather Reports


Display with metric or nautical units.
time (UTC)temp
F
wind
direction
speed
MPH
gust
MPH
rain 1hr
in
rain 24hr
in
rain mn
in
humidity
%
barometer
mb
20260506162101 54 249 2.0 0.0 0.00 0.00 0.00 77 1018.8
20260506161043 54 111 1.0 0.0 0.00 0.00 0.00 78 1018.8
20260506160036 54 242 1.0 0.0 0.00 0.00 0.00 78 1018.9
20260506155110 54 193 1.0 0.0 0.00 0.00 0.00 78 1019.2
20260506154046 54 221 1.0 0.0 0.00 0.00 0.00 78 1019.2
20260506153047 54 243 1.0 0.0 0.00 0.00 0.00 78 1019.2
20260506152039 54 262 1.0 0.0 0.00 0.00 0.00 78 1018.7
20260506151115 54 177 1.0 0.0 0.00 0.00 0.00 78 1018.7
20260506150042 53 215 1.0 0.0 0.00 0.00 0.00 77 1019.0
20260506145037 53 290 1.0 0.0 0.00 0.00 0.00 77 1018.9
20260506144054 53 203 1.0 0.0 0.00 0.00 0.00 77 1018.9
20260506143044 53 227 1.0 0.0 0.00 0.00 0.00 77 1018.8
20260506142039 53 265 1.0 0.0 0.00 0.00 0.00 77 1018.7
20260506141034 53 186 1.0 0.0 0.00 0.00 0.00 76 1018.7
20260506140045 53 290 0.0 0.0 0.00 0.00 0.00 76 1018.8
20260506135042 53 218 1.0 0.0 0.00 0.00 0.00 76 1018.7
20260506134057 53 200 0.0 0.0 0.00 0.00 0.00 76 1018.7
20260506133028 53 200 0.0 0.0 0.00 0.00 0.00 76 1018.6
20260506132102 53 200 0.0 0.0 0.00 0.00 0.00 76 1018.1
20260506131043 53 200 1.0 0.0 0.00 0.00 0.00 76 1018.1
20260506130038 53 199 0.0 0.0 0.00 0.00 0.00 76 1018.2
20260506125031 53 200 0.0 0.0 0.00 0.00 0.00 76 1018.1
20260506124046 53 200 0.0 0.0 0.00 0.00 0.00 76 1018.1
20260506123101 53 200 0.0 0.0 0.00 0.00 0.00 76 1018.1
20260506122100 53 200 1.0 0.0 0.00 0.00 0.00 76 1018.2
20260506121047 53 186 1.0 0.0 0.00 0.00 0.00 76 1018.2
20260506120053 53 166 1.0 0.0 0.00 0.00 0.00 76 1017.9
20260506115048 53 193 0.0 0.0 0.00 0.00 0.00 76 1017.8
20260506114059 53 195 1.0 0.0 0.00 0.00 0.00 76 1017.8
20260506113101 53 231 1.0 0.0 0.00 0.00 0.00 76 1017.6
20260506112054 53 174 1.0 0.0 0.00 0.00 0.00 76 1017.5
20260506111033 53 188 1.0 0.0 0.00 0.00 0.00 76 1017.5
20260506110031 53 131 2.0 0.0 0.00 0.00 0.00 76 1017.5
20260506105043 53 185 2.0 0.0 0.00 0.00 0.00 76 1017.4
20260506104100 53 252 1.0 0.0 0.00 0.00 0.00 76 1017.4
20260506103032 53 243 2.0 0.0 0.00 0.00 0.00 77 1017.2
20260506102040 53 263 1.0 0.0 0.00 0.00 0.00 78 1017.2
20260506101055 53 262 1.0 0.0 0.00 0.00 0.00 80 1017.2
20260506100028 52 238 1.0 0.0 0.00 0.00 0.00 84 1017.0
20260506095057 52 186 1.0 0.0 0.00 0.00 0.00 84 1017.0
20260506094033 52 130 1.0 0.0 0.00 0.00 0.00 85 1017.0
20260506093040 51 146 0.0 0.0 0.00 0.00 0.00 85 1017.0
20260506092037 50 142 0.0 0.0 0.00 0.00 0.00 83 1016.9
20260506091050 50 142 0.0 0.0 0.00 0.00 0.00 81 1016.9
20260506090040 50 142 0.0 0.0 0.00 0.00 0.00 80 1016.7
20260506085056 50 142 0.0 0.0 0.00 0.00 0.00 80 1016.5
20260506084026 51 142 0.0 0.0 0.00 0.00 0.00 80 1016.5
20260506083038 51 142 0.0 0.0 0.00 0.00 0.00 79 1016.5
20260506082055 51 142 0.0 0.0 0.00 0.00 0.00 79 1016.5
20260506081045 51 142 0.0 0.0 0.00 0.00 0.00 79 1016.5
20260506080122 52 142 0.0 0.0 0.00 0.00 0.00 79 1016.5
20260506073029 52 142 0.0 0.0 0.00 0.00 0.00 79 1016.5
20260506072034 52 142 0.0 0.0 0.00 0.00 0.00 79 1016.4
20260506071040 52 142 0.0 0.0 0.00 0.00 0.00 79 1016.4
20260506062033 53 142 0.0 0.0 0.00 0.00 0.00 78 1015.8
20260506061038 53 142 0.0 0.0 0.00 0.00 0.00 78 1015.8
20260506051035 54 142 0.0 0.0 0.00 0.00 0.00 78 1015.4
20260506045042 55 142 0.0 0.0 0.00 0.00 0.00 78 1015.3
20260506044050 55 142 0.0 0.0 0.00 0.00 0.00 78 1015.3
20260506043053 55 142 0.0 0.0 0.00 0.00 0.00 79 1015.1
20260506042043 56 142 0.0 0.0 0.00 0.00 0.00 79 1015.1
20260506041038 56 142 0.0 0.0 0.00 0.00 0.00 79 1015.1
20260506040054 57 142 0.0 0.0 0.00 0.00 0.00 79 1015.0
20260506035104 58 142 0.0 0.0 0.00 0.00 0.00 78 1014.9
20260506034031 58 142 0.0 0.0 0.00 0.00 0.00 77 1014.9
20260506033029 59 142 0.0 0.0 0.00 0.00 0.00 77 1014.8
20260506032051 59 142 0.0 0.0 0.00 0.00 0.00 75 1014.7
20260506031043 60 142 0.0 0.0 0.00 0.00 0.00 73 1014.7
20260506030026 61 142 0.0 0.0 0.00 0.00 0.00 72 1014.7
20260506025108 62 142 0.0 0.0 0.00 0.00 0.00 71 1014.6
20260506024041 62 143 1.0 0.0 0.00 0.00 0.00 70 1014.6
20260506023106 62 142 1.0 0.0 0.00 0.00 0.00 70 1014.4
20260506022055 62 136 2.0 0.0 0.00 0.00 0.00 69 1014.4
20260506021045 62 136 1.0 0.0 0.00 0.00 0.00 69 1014.4
20260506020048 63 110 1.0 0.0 0.00 0.00 0.00 70 1014.5
20260506015040 63 132 2.0 0.0 0.00 0.00 0.00 69 1014.5
20260506014044 63 125 1.0 0.0 0.00 0.00 0.00 68 1014.5
20260506013036 63 246 1.0 0.0 0.00 0.00 0.00 69 1014.5
20260506011057 63 135 1.0 0.0 0.00 0.00 0.00 68 1014.6
20260506010043 63 251 1.0 0.0 0.00 0.00 0.00 69 1014.6
20260506005039 64 162 1.0 0.0 0.00 0.00 0.00 67 1014.8
20260506004032 64 134 1.0 0.0 0.00 0.00 0.00 68 1014.8
20260506003033 63 137 2.0 0.0 0.00 0.00 0.00 69 1014.8
20260506002040 63 133 1.0 0.0 0.00 0.00 0.00 69 1015.0
20260506001030 62 148 2.0 0.0 0.00 0.00 0.00 69 1015.0
20260506000057 63 162 2.0 0.0 0.00 0.00 0.00 70 1015.0
20260505235048 62 217 1.0 0.0 0.00 0.00 0.00 70 1015.3
20260505234052 62 139 1.0 0.0 0.00 0.00 0.00 71 1015.3
20260505233041 62 288 1.0 0.0 0.00 0.00 0.00 69 1015.4
20260505232056 62 349 2.0 0.0 0.00 0.00 0.00 69 1015.4
20260505231052 63 266 2.0 0.0 0.00 0.00 0.00 69 1015.4
20260505230044 62 278 1.0 0.0 0.00 0.00 0.00 71 1015.5
20260505225040 61 137 1.0 0.0 0.00 0.00 0.00 70 1015.6
20260505224045 61 172 1.0 0.0 0.00 0.00 0.00 71 1015.6
20260505223058 60 172 2.0 0.0 0.00 0.00 0.00 72 1015.7
20260505222038 61 142 2.0 0.0 0.00 0.00 0.00 70 1015.9
20260505221046 60 197 1.0 0.0 0.00 0.00 0.00 72 1015.9
20260505220037 60 195 1.0 0.0 0.00 0.00 0.00 71 1015.9
20260505215041 60 334 1.0 0.0 0.00 0.00 0.00 72 1016.0
20260505214106 60 251 1.0 0.0 0.00 0.00 0.00 73 1016.0
20260505213036 59 236 2.0 0.0 0.00 0.00 0.00 73 1016.0
20260505212036 60 290 1.0 0.0 0.00 0.00 0.00 73 1016.0
20260505211055 59 226 1.0 0.0 0.00 0.00 0.00 73 1016.0
20260505210039 59 249 1.0 0.0 0.00 0.00 0.00 72 1016.0
20260505205036 59 244 2.0 0.0 0.00 0.00 0.00 74 1016.1
20260505204100 58 231 1.0 0.0 0.00 0.00 0.00 73 1016.1
20260505203043 59 197 1.0 0.0 0.00 0.00 0.00 73 1016.0
20260505202107 59 248 2.0 0.0 0.00 0.00 0.00 72 1016.0
20260505201042 59 293 1.0 0.0 0.00 0.00 0.00 73 1016.0
20260505200041 59 187 1.0 0.0 0.00 0.00 0.00 72 1016.0
20260505195054 59 179 1.0 0.0 0.00 0.00 0.00 72 1016.0
20260505194046 58 245 1.0 0.0 0.00 0.00 0.00 72 1016.0
20260505193030 58 262 2.0 0.0 0.00 0.00 0.00 72 1016.0
20260505192053 58 175 2.0 0.0 0.00 0.00 0.00 73 1015.9
20260505191047 58 245 2.0 0.0 0.00 0.00 0.00 72 1015.9
20260505190044 57 137 1.0 0.0 0.00 0.00 0.00 73 1016.0
20260505185042 57 233 2.0 0.0 0.00 0.00 0.00 73 1016.0
20260505184055 57 270 2.0 0.0 0.00 0.00 0.00 73 1016.0
20260505183045 57 150 2.0 0.0 0.00 0.00 0.00 74 1016.0
20260505182031 57 224 1.0 0.0 0.00 0.00 0.00 73 1015.8
20260505181052 57 186 2.0 0.0 0.00 0.00 0.00 73 1015.8
20260505180104 57 296 1.0 0.0 0.00 0.00 0.00 73 1015.9
20260505175033 56 194 2.0 0.0 0.00 0.00 0.00 73 1015.9
20260505174031 56 144 1.0 0.0 0.00 0.00 0.00 73 1015.9
20260505173043 56 281 1.0 0.0 0.00 0.00 0.00 73 1015.8
20260505172103 56 257 2.0 0.0 0.00 0.00 0.00 73 1015.5
20260505171052 56 260 1.0 0.0 0.00 0.00 0.00 74 1015.5
20260505170036 56 166 2.0 0.0 0.00 0.00 0.00 73 1015.6
20260505165031 56 200 1.0 0.0 0.00 0.00 0.00 73 1015.5
20260505164051 56 210 1.0 0.0 0.00 0.00 0.00 74 1015.5
20260505163045 56 238 1.0 0.0 0.00 0.00 0.00 74 1015.5